sat.trackr.live / text

‹ back to catalog

STARLINK-34307

NORAD 64489 · 2025-133T

PAYLOAD ACTIVE UNKNOWN

§ Identity

Operator
Country
US
Launch date
2025-06-23
Launch site
AFETR
Launch vehicle
Mass (kg)
RCS (m²)

Purposes: comms

External: N2YO · Heavens-Above · Gunter

§ Orbital elements

Epoch: 2026-09-20T09:05:03.549120Z

Period
93.85 min
Inclination
53.1593°
Eccentricity
0.0001027
Mean motion
15.34413666 rev/d
Perigee alt
462.0 km
Apogee alt
463.4 km
Semi-major
6,840.8 km
B*
5.1856e-4
RAAN
291.9527°
Arg perigee
75.0303°
Mean anomaly
285.0813°
Rev number
7,098

§ Raw data

STARLINK-343071 64489U 25133T   26263.37851330  .00017192  00000+0  51856-3 0  99912 64489  53.1593 291.9527 0001027  75.0303 285.0813 15.34413666 70982

JSON: /api/v1/satellites/64489 · /tle

For live sub-satellite position, see the globe view (requires WebGL).

§ Visibility from observer

Set your observer location to see the next 7 days of passes ≥ 10°. The values pass through the URL so the page stays shareable.

No JS? Fill the form by hand. The geolocation button needs JavaScript.